Regional Weather Roundup
Issued by NWS

Home | Current Version | Previous Version | Text Only | Print | Product List | Glossary On
Versions: 1 2 3 4 5 6 7 8 9 10 11 12 13 14 15 16 17 18 19 20 21 22 23 24 25 26 27 28 29 30 31 32 33 34 35 36 37 38 39 40 41 42 43 44 45 46 47 48 49 50
000
ASUS43 KTOP 221908
RWRKS

WEATHER ROUNDUP FOR KANSAS
NATIONAL WEATHER SERVICE GOODLAND KS
100 PM CST MON DEC 22 2014

NOTE:  "FAIR" INDICATES FEW OR NO CLOUDS BELOW 12,000 FEET WITH NO
SIGNIFICANT WEATHER AND/OR OBSTRUCTIONS TO VISIBILITY.

KSZ001>006-013>018-027>032-041>047-222000-
NORTHWEST KANSAS

CITY           SKY/WX    TMP DP  RH WIND       PRES   REMARKS
GOODLAND       SUNNY     47  23  38 NW24G35   29.64F
HAYS           MOSUNNY   52  28  40 NW21G26   29.57F
HILL CITY      MOSUNNY   51  29  42 NW15G26   29.57F
RUSSELL        MOSUNNY   51  34  52 NW22      29.54F
$$

KSZ061>065-074>080-084>089-222000-
SOUTHWEST KANSAS

CITY           SKY/WX    TMP DP  RH WIND       PRES   REMARKS
DODGE CITY     CLOUDY    49  30  48 NW25      29.64F
ELKHART          N/A     47  25  42 N14         N/A
GARDEN CITY    MOSUNNY   48  29  47 N24G32    29.65F
GREAT BEND     PTSUNNY   52  34  50 NW18G26   29.57F
LIBERAL        PTSUNNY   50  32  50 NW23G30   29.69F
PRATT          MOSUNNY   50  34  53 N22G28    29.60S
$$

KSZ066>073-081>083-090>101-222000-
SOUTHEAST KANSAS

CITY           SKY/WX    TMP DP  RH WIND       PRES   REMARKS
CHANUTE        LGT RAIN  48  47  96 SW10      29.50F FOG
COFFEYVILLE    CLOUDY    50  48  93 SW9       29.52S
HUTCHINSON     PTSUNNY   53  38  56 NW18      29.54F
MEDICINE LODGE   N/A     53  36  52 N17G28    29.58F
NEWTON         CLOUDY    46  37  71 N15G23    29.54F
PARSONS        LGT RAIN  49  48  97 SW8       29.51F FOG
WICHITA INTL   PTSUNNY   51  40  65 N17       29.54F
WICHITA JABRA  CLOUDY    49  41  74 NW14      29.53S
WINFIELD       PTSUNNY   51  44  77 NW14      29.54F
$$

KSZ007>012-019>026-033>040-048>060-102>105-222000-
NORTHEAST KANSAS

CITY           SKY/WX    TMP DP  RH WIND       PRES   REMARKS
CONCORDIA      PTSUNNY   47  38  71 NW20G28   29.48F
EMPORIA        PTSUNNY   47  42  83 W18G24    29.48F
LAWRENCE       LGT RAIN  46  44  93 SW8       29.47F FOG
MANHATTAN      LGT RAIN  45  42  89 W7        29.49F
MARYSVILLE     RAIN      43  41  93 NW12      29.45F
OLATHE IND     CLOUDY    44  44 100 S8        29.48F FOG
OLATHE EXE     CLOUDY    44  44 100 S8        29.47F FOG
SALINA         PTSUNNY   51  39  63 NW18      29.52F
TOPEKA BILLARD CLOUDY    48  45  89 SW10      29.47F
TOPEKA FORBES  CLOUDY    48  45  89 SW9       29.46F
$$



USA.gov is the U.S. government's official web portal to all federal, state and local government web resources and services.